This is the latest recevied weather packets stored in our database for station/object KB0VBZ. If no packets are shown the sender has not sent any weather packets the latest 1 day(s).
| Time | Temp. | Humidity | Pressure | Rain* | Wind** | Luminosity | Snow |
|---|---|---|---|---|---|---|---|
| 1778025710 | 11.11° C | - | - | - | 2.24 m/s, 100° | - | - |
| 1778023844 | 12.78° C | - | - | - | 3.13 m/s, 118° | - | - |
| 1778023471 | 12.78° C | - | - | - | 3.58 m/s, 123° | - | - |
| 1778022352 | 12.78° C | - | - | - | 3.58 m/s, 122° | - | - |
| 1778021605 | 12.78° C | - | - | - | 3.13 m/s, 115° | - | - |
| 1778020112 | 12.78° C | - | - | - | 3.13 m/s, 117° | - | - |
| 1778019864 | 12.78° C | - | - | - | 2.24 m/s, 108° | - | - |
| 1778019739 | 12.78° C | - | - | - | 2.24 m/s, 108° | - | - |
| 1778019366 | 12.78° C | - | - | - | 2.68 m/s, 96° | - | - |
| 1778017873 | 12.78° C | - | - | - | 2.68 m/s, 99° | - | - |
| 1778017500 | 12.78° C | - | - | - | 2.24 m/s, 99° | - | - |
| 1778017127 | 12.78° C | - | - | - | 2.24 m/s, 95° | - | - |
| 1778016380 | 12.78° C | - | - | - | 2.68 m/s, 98° | - | - |
| 1778016007 | 12.78° C | - | - | - | 1.79 m/s, 108° | - | - |
| 1778013021 | 15° C | - | - | - | 3.13 m/s, 99° | - | - |
| 1778012648 | 12.78° C | - | - | - | 2.24 m/s, 93° | - | - |
| 1778012275 | 12.78° C | - | - | - | 2.68 m/s, 104° | - | - |
| 1778011902 | 12.78° C | - | - | - | 2.24 m/s, 115° | - | - |
| 1778011529 | 12.78° C | - | - | - | 2.68 m/s, 95° | - | - |
| 1778011156 | 12.78° C | - | - | - | 2.68 m/s, 114° | - | - |
| 1778010409 | 12.78° C | - | - | - | 2.24 m/s, 115° | - | - |
| 1778010036 | 12.78° C | - | - | - | 3.13 m/s, 103° | - | - |
| 1778009290 | 15° C | - | - | - | 3.13 m/s, 113° | - | - |
| 1778008917 | 12.78° C | - | - | - | 4.02 m/s, 97° | - | - |
| 1778008543 | 12.78° C | - | - | - | 4.02 m/s, 120° | - | - |
* Rain since midnight (hover to see other rain measurements)
** Current wind speed in m/s (hover to see current wind gust speed)